• In Belgium
  • List of Countries
  • For 7 days
  • Water Temperature
  • Satellite Maps
  • Weather Map
  • Weather Widgets
  • user-avatar
    Login

    Hourly Weather Bajdabo

    Today, 15 October, Monday

    Time Temperature Precipitation Wind Pressure Humidity
    00:00 +24°C° 0 mm 6 mps 721 mmHg 78%
    01:00 +24°C° 0 mm 6 mps 721 mmHg 81%
    02:00 +24°C° 0 mm 6 mps 721 mmHg 83%
    03:00 +25°C° 0 mm 5 mps 721 mmHg 86%
    04:00 +23°C° 0 mm 5 mps 721 mmHg 86%
    05:00 +23°C° 0 mm 5 mps 722 mmHg 87%
    06:00 +23°C° 0 mm 5 mps 722 mmHg 87%
    07:00 +25°C° 0 mm 5 mps 722 mmHg 82%
    08:00 +26°C° 0 mm 5 mps 723 mmHg 77%
    09:00 +27°C° 0 mm 5 mps 723 mmHg 71%
    10:00 +29°C° 0 mm 5 mps 723 mmHg 64%
    11:00 +30°C° 0 mm 5 mps 722 mmHg 57%
    12:00 +33°C° 0 mm 5 mps 722 mmHg 50%
    13:00 +34°C° 0 mm 4 mps 722 mmHg 47%
    14:00 +34°C° 0 mm 4 mps 721 mmHg 44%
    15:00 +35°C° 0 mm 4 mps 721 mmHg 40%
    16:00 +34°C° 0 mm 4 mps 721 mmHg 43%
    17:00 +34°C° 0 mm 4 mps 721 mmHg 45%
    18:00 +33°C° 0 mm 5 mps 721 mmHg 47%
    19:00 +32°C° 0.1 mm 5 mps 721 mmHg 53%
    20:00 +30°C° 0.1 mm 6 mps 721 mmHg 59%
    21:00 +28°C° 0.1 mm 7 mps 722 mmHg 65%
    22:00 +28°C° 0 mm 6 mps 722 mmHg 68%
    23:00 +27°C° 0 mm 6 mps 722 mmHg 72%

    Tomorrow, 16 October, Tuesday

    Time Temperature Precipitation Wind Pressure Humidity
    00:00 +26°C° 0 mm 5 mps 722 mmHg 76%
    01:00 +26°C° 0 mm 5 mps 722 mmHg 78%
    02:00 +25°C° 0 mm 5 mps 721 mmHg 80%
    03:00 +25°C° 0 mm 4 mps 721 mmHg 83%
    04:00 +25°C° 0 mm 4 mps 721 mmHg 84%
    05:00 +25°C° 0 mm 4 mps 722 mmHg 85%
    06:00 +25°C° 0 mm 4 mps 722 mmHg 86%
    07:00 +26°C° 0 mm 5 mps 723 mmHg 81%
    08:00 +27°C° 0 mm 5 mps 723 mmHg 76%
    09:00 +28°C° 0 mm 5 mps 723 mmHg 70%
    10:00 +29°C° 0 mm 5 mps 723 mmHg 64%
    11:00 +32°C° 0 mm 5 mps 723 mmHg 58%
    12:00 +33°C° 0 mm 5 mps 722 mmHg 52%
    13:00 +34°C° 0.3 mm 4 mps 721 mmHg 48%
    14:00 +34°C° 0.3 mm 4 mps 721 mmHg 45%
    15:00 +35°C° 0.3 mm 3 mps 720 mmHg 42%
    16:00 +34°C° 0.2 mm 3 mps 720 mmHg 44%
    17:00 +34°C° 0.2 mm 4 mps 720 mmHg 46%
    18:00 +33°C° 0.2 mm 4 mps 720 mmHg 47%
    19:00 +32°C° 0.4 mm 5 mps 721 mmHg 53%
    20:00 +30°C° 0.4 mm 6 mps 721 mmHg 59%
    21:00 +29°C° 0.4 mm 6 mps 722 mmHg 65%
    22:00 +28°C° 0.1 mm 6 mps 722 mmHg 70%
    23:00 +27°C° 0.1 mm 6 mps 722 mmHg 75%

    Day after tomorrow, 17 October, Wednesday

    Time Temperature Precipitation Wind Pressure Humidity
    00:00 +26°C° 0.1 mm 6 mps 722 mmHg 80%
    01:00 +26°C° 0 mm 6 mps 722 mmHg 81%
    02:00 +26°C° 0 mm 6 mps 721 mmHg 81%
    03:00 +26°C° 0 mm 6 mps 721 mmHg 82%
    04:00 +25°C° 0 mm 5 mps 721 mmHg 82%
    05:00 +25°C° 0 mm 5 mps 721 mmHg 83%
    06:00 +25°C° 0 mm 5 mps 721 mmHg 83%
    07:00 +26°C° 0 mm 5 mps 722 mmHg 76%
    08:00 +28°C° 0 mm 6 mps 722 mmHg 68%
    09:00 +29°C° 0 mm 6 mps 723 mmHg 61%
    10:00 +30°C° 0 mm 5 mps 722 mmHg 54%
    11:00 +33°C° 0 mm 5 mps 722 mmHg 47%
    12:00 +34°C° 0 mm 5 mps 722 mmHg 41%
    13:00 +35°C° 0 mm 4 mps 721 mmHg 38%
    14:00 +35°C° 0 mm 4 mps 720 mmHg 36%
    15:00 +36°C° 0 mm 4 mps 719 mmHg 33%
    16:00 +35°C° 0 mm 4 mps 719 mmHg 35%
    17:00 +34°C° 0 mm 4 mps 719 mmHg 36%
    18:00 +34°C° 0 mm 4 mps 719 mmHg 38%
    19:00 +32°C° 0 mm 5 mps 720 mmHg 45%
    20:00 +30°C° 0 mm 6 mps 721 mmHg 53%
    21:00 +28°C° 0 mm 7 mps 721 mmHg 61%
    22:00 +27°C° 0 mm 7 mps 721 mmHg 64%
    23:00 +27°C° 0 mm 6 mps 721 mmHg 68%

    18 October, Thursday

    Time Temperature Precipitation Wind Pressure Humidity
    00:00 +26°C° 0 mm 6 mps 721 mmHg 71%
    01:00 +26°C° 0 mm 6 mps 721 mmHg 73%
    02:00 +25°C° 0 mm 5 mps 720 mmHg 75%
    03:00 +25°C° 0 mm 5 mps 720 mmHg 77%
    04:00 +23°C° 0 mm 5 mps 720 mmHg 79%
    05:00 +23°C° 0 mm 5 mps 721 mmHg 80%
    06:00 +23°C° 0 mm 5 mps 721 mmHg 82%
    07:00 +25°C° 0 mm 5 mps 722 mmHg 74%
    08:00 +27°C° 0 mm 6 mps 723 mmHg 66%
    09:00 +29°C° 0 mm 6 mps 723 mmHg 58%
    10:00 +30°C° 0 mm 6 mps 723 mmHg 50%
    11:00 +33°C° 0 mm 5 mps 722 mmHg 43%
    12:00 +35°C° 0 mm 5 mps 722 mmHg 35%
    13:00 +35°C° 0 mm 5 mps 721 mmHg 32%
    14:00 +36°C° 0 mm 5 mps 720 mmHg 30%
    15:00 +36°C° 0 mm 5 mps 719 mmHg 27%
    16:00 +35°C° 0 mm 5 mps 719 mmHg 29%
    17:00 +35°C° 0 mm 4 mps 719 mmHg 31%
    18:00 +34°C° 0 mm 4 mps 719 mmHg 33%
    19:00 +32°C° 0 mm 5 mps 720 mmHg 40%
    20:00 +30°C° 0 mm 6 mps 720 mmHg 48%
    21:00 +28°C° 0 mm 7 mps 721 mmHg 55%
    22:00 +28°C° 0 mm 6 mps 721 mmHg 61%
    23:00 +27°C° 0 mm 6 mps 721 mmHg 66%

    19 October, Friday

    Time Temperature Precipitation Wind Pressure Humidity
    00:00 +26°C° 0 mm 5 mps 721 mmHg 72%
    01:00 +25°C° 0 mm 5 mps 721 mmHg 75%
    02:00 +25°C° 0 mm 5 mps 720 mmHg 78%
    03:00 +25°C° 0 mm 5 mps 720 mmHg 81%
    04:00 +23°C° 0 mm 5 mps 721 mmHg 83%
    05:00 +23°C° 0 mm 4 mps 721 mmHg 85%
    06:00 +23°C° 0 mm 4 mps 722 mmHg 86%
    07:00 +26°C° 0 mm 4 mps 722 mmHg 77%
    08:00 +27°C° 0 mm 5 mps 723 mmHg 68%
    09:00 +29°C° 0 mm 5 mps 723 mmHg 59%
    10:00 +32°C° 0 mm 4 mps 723 mmHg 52%
    11:00 +33°C° 0 mm 4 mps 722 mmHg 46%
    12:00 +35°C° 0 mm 4 mps 721 mmHg 39%
    13:00 +35°C° 0 mm 3 mps 721 mmHg 37%
    14:00 +36°C° 0 mm 3 mps 720 mmHg 34%
    15:00 +36°C° 0 mm 3 mps 719 mmHg 32%
    16:00 +35°C° 0 mm 3 mps 720 mmHg 34%
    17:00 +35°C° 0 mm 4 mps 720 mmHg 36%
    18:00 +34°C° 0 mm 4 mps 720 mmHg 37%
    19:00 +33°C° 0 mm 4 mps 721 mmHg 42%
    20:00 +32°C° 0 mm 5 mps 721 mmHg 47%
    21:00 +30°C° 0 mm 6 mps 722 mmHg 52%
    22:00 +29°C° 0 mm 5 mps 721 mmHg 58%
    23:00 +28°C° 0 mm 5 mps 721 mmHg 64%

    20 October, Saturday

    Time Temperature Precipitation Wind Pressure Humidity
    00:00 +27°C° 0 mm 5 mps 721 mmHg 70%
    01:00 +26°C° 0 mm 5 mps 721 mmHg 73%
    02:00 +26°C° 0 mm 5 mps 720 mmHg 76%
    03:00 +25°C° 0 mm 5 mps 720 mmHg 79%
    04:00 +25°C° 0 mm 4 mps 721 mmHg 81%
    05:00 +25°C° 0 mm 4 mps 721 mmHg 83%
    06:00 +25°C° 0 mm 4 mps 722 mmHg 85%
    07:00 +26°C° 0 mm 4 mps 723 mmHg 79%
    08:00 +27°C° 0 mm 4 mps 723 mmHg 72%
    09:00 +28°C° 0 mm 5 mps 723 mmHg 66%
    10:00 +30°C° 0.1 mm 4 mps 723 mmHg 59%
    11:00 +33°C° 0.1 mm 4 mps 722 mmHg 52%
    12:00 +34°C° 0.1 mm 3 mps 721 mmHg 46%
    13:00 +35°C° 0 mm 3 mps 721 mmHg 43%
    14:00 +35°C° 0 mm 3 mps 720 mmHg 41%
    15:00 +35°C° 0 mm 3 mps 720 mmHg 39%
    16:00 +35°C° 0 mm 3 mps 720 mmHg 40%
    17:00 +34°C° 0 mm 3 mps 720 mmHg 42%
    18:00 +34°C° 0 mm 4 mps 721 mmHg 43%
    19:00 +32°C° 0.1 mm 5 mps 721 mmHg 49%
    20:00 +30°C° 0.1 mm 6 mps 721 mmHg 55%
    21:00 +29°C° 0.1 mm 7 mps 722 mmHg 61%
    22:00 +28°C° 0 mm 6 mps 721 mmHg 67%
    23:00 +27°C° 0 mm 6 mps 721 mmHg 72%
    Show more